Track TIANHUI 1-02 now! 10-day predictions TIANHUI 1-02 is classified as:
1 38256U 12020A 24326.11564264 .00027315 00000-0 50518-3 0 9995 2 38256 97.6091 127.0906 0010523 13.3939 346.7589 15.48961866698483